Location: Ahausen
(50.4985°N, 8.2722°E)
Time: 12:38:39
(UTC+00:00)

ZACube-1 - Visible Passes

Search period start: 28 June 2022 00:00
Search period end: 08 July 2022 00:00
Orbit: 581 x 662 km, 97.6° (Epoch: 28 June)

Date Brightness Start Highest point End Pass type
(mag) Time Alt. Az. Time Alt. Az. Time Alt. Az.
30 Jun ? 01:56:40 10° ENE 01:57:52 11° E 01:59:03 10° E visible
01 Jul ? 02:13:07 10° NE 02:15:55 16° E 02:18:44 10° SE visible
02 Jul ? 02:30:20 10° NE 02:33:55 23° E 02:37:32 10° SE visible
06 Jul ? 02:06:16 10° NE 02:08:44 14° E 02:11:12 10° ESE visible
07 Jul ? 02:23:20 10° NE 02:26:44 21° E 02:30:09 10° SE visible
